When you browse on this site, cookies collect data to enhance your experience and personalize the content and advertising you see.
Visit our Privacy Policy to learn more. By continuing to use the site, you agree to this use of cookies and data.
  • Em Portugal
  • Lista de países
  • Para 7 dias
  • Temperatura da água
  • Mapas de satélite
  • Mapa do tempo
  • Widgets de tempo
  • user-avatar
    Iniciar Sessão

    Previsão horária em Zelenaya Run

    Hoje, 20 Junho, Quinta-feira

    Tempo Temperatura Precipitação Vento Pressão Humidade
    00:00 +18°C° 0 mm 2 m/s 750 mmHg 83%
    01:00 +18°C° 0 mm 2 m/s 750 mmHg 82%
    02:00 +18°C° 0 mm 2 m/s 750 mmHg 81%
    03:00 +18°C° 0 mm 2 m/s 750 mmHg 82%
    04:00 +18°C° 0 mm 2 m/s 750 mmHg 84%
    05:00 +18°C° 0 mm 2 m/s 750 mmHg 85%
    06:00 +19°C° 0 mm 2 m/s 750 mmHg 82%
    07:00 +21°C° 0 mm 2 m/s 750 mmHg 78%
    08:00 +22°C° 0 mm 3 m/s 750 mmHg 74%
    09:00 +25°C° 0 mm 3 m/s 750 mmHg 69%
    10:00 +26°C° 0 mm 3 m/s 750 mmHg 65%
    11:00 +27°C° 0 mm 4 m/s 749 mmHg 60%
    12:00 +27°C° 0.1 mm 4 m/s 749 mmHg 60%
    13:00 +28°C° 0.1 mm 4 m/s 749 mmHg 59%
    14:00 +28°C° 0.1 mm 4 m/s 749 mmHg 59%
    15:00 +28°C° 0.3 mm 4 m/s 748 mmHg 64%
    16:00 +27°C° 0.3 mm 3 m/s 748 mmHg 68%
    17:00 +27°C° 0.3 mm 3 m/s 748 mmHg 72%
    18:00 +25°C° 0.1 mm 3 m/s 748 mmHg 77%
    19:00 +24°C° 0.1 mm 3 m/s 748 mmHg 81%
    20:00 +22°C° 0.1 mm 3 m/s 748 mmHg 85%
    21:00 +22°C° 0.1 mm 3 m/s 748 mmHg 87%
    22:00 +21°C° 0.1 mm 3 m/s 748 mmHg 88%
    23:00 +20°C° 0.1 mm 3 m/s 748 mmHg 90%

    Amanhã, 21 Junho, Sexta-feira

    Tempo Temperatura Precipitação Vento Pressão Humidade
    00:00 +20°C° 0.1 mm 3 m/s 748 mmHg 91%
    01:00 +20°C° 0.1 mm 3 m/s 749 mmHg 92%
    02:00 +20°C° 0.1 mm 3 m/s 749 mmHg 93%
    03:00 +20°C° 0 mm 3 m/s 749 mmHg 93%
    04:00 +20°C° 0 mm 3 m/s 749 mmHg 93%
    05:00 +20°C° 0 mm 3 m/s 749 mmHg 93%
    06:00 +21°C° 0 mm 3 m/s 749 mmHg 88%
    07:00 +22°C° 0 mm 4 m/s 749 mmHg 84%
    08:00 +25°C° 0 mm 4 m/s 749 mmHg 80%
    09:00 +26°C° 0 mm 4 m/s 749 mmHg 75%
    10:00 +27°C° 0 mm 5 m/s 749 mmHg 69%
    11:00 +29°C° 0 mm 5 m/s 749 mmHg 64%
    12:00 +29°C° 0.1 mm 5 m/s 749 mmHg 63%
    13:00 +29°C° 0.1 mm 5 m/s 749 mmHg 62%
    14:00 +30°C° 0.1 mm 5 m/s 748 mmHg 60%
    15:00 +29°C° 1.5 mm 5 m/s 748 mmHg 65%
    16:00 +29°C° 1.5 mm 4 m/s 748 mmHg 70%
    17:00 +28°C° 1.5 mm 3 m/s 748 mmHg 75%
    18:00 +27°C° 0.7 mm 3 m/s 748 mmHg 79%
    19:00 +26°C° 0.7 mm 3 m/s 748 mmHg 82%
    20:00 +25°C° 0.7 mm 2 m/s 748 mmHg 85%
    21:00 +24°C° 0 mm 3 m/s 748 mmHg 87%
    22:00 +22°C° 0 mm 3 m/s 748 mmHg 90%
    23:00 +21°C° 0 mm 3 m/s 748 mmHg 92%

    Depois de amanhã, 22 Junho, Sábado

    Tempo Temperatura Precipitação Vento Pressão Humidade
    00:00 +21°C° 0.3 mm 3 m/s 748 mmHg 92%
    01:00 +21°C° 0.3 mm 3 m/s 748 mmHg 93%
    02:00 +20°C° 0.3 mm 3 m/s 748 mmHg 94%
    03:00 +20°C° 1 mm 3 m/s 748 mmHg 94%
    04:00 +20°C° 1 mm 3 m/s 749 mmHg 94%
    05:00 +20°C° 1 mm 3 m/s 749 mmHg 95%
    06:00 +21°C° 0.1 mm 2 m/s 749 mmHg 91%
    07:00 +24°C° 0.1 mm 2 m/s 749 mmHg 88%
    08:00 +25°C° 0.1 mm 1 m/s 749 mmHg 85%
    09:00 +25°C° 1.6 mm 1 m/s 750 mmHg 83%
    10:00 +26°C° 1.6 mm 1 m/s 750 mmHg 80%
    11:00 +27°C° 1.6 mm 1 m/s 750 mmHg 78%
    12:00 +27°C° 0.1 mm 1 m/s 750 mmHg 74%
    13:00 +27°C° 0.1 mm 1 m/s 750 mmHg 71%
    14:00 +28°C° 0.1 mm 1 m/s 750 mmHg 67%
    15:00 +27°C° 0.4 mm 2 m/s 750 mmHg 70%
    16:00 +27°C° 0.4 mm 2 m/s 749 mmHg 73%
    17:00 +27°C° 0.4 mm 3 m/s 749 mmHg 75%
    18:00 +25°C° 0.5 mm 3 m/s 750 mmHg 80%
    19:00 +24°C° 0.5 mm 3 m/s 750 mmHg 84%
    20:00 +22°C° 0.5 mm 3 m/s 750 mmHg 88%
    21:00 +22°C° 0 mm 3 m/s 750 mmHg 90%
    22:00 +21°C° 0 mm 3 m/s 750 mmHg 91%
    23:00 +20°C° 0 mm 3 m/s 750 mmHg 93%

    23 Junho, Domingo

    Tempo Temperatura Precipitação Vento Pressão Humidade
    00:00 +20°C° 0.1 mm 3 m/s 750 mmHg 93%
    01:00 +20°C° 0.1 mm 3 m/s 750 mmHg 93%
    02:00 +20°C° 0.1 mm 3 m/s 750 mmHg 93%
    03:00 +20°C° 0.6 mm 3 m/s 750 mmHg 94%
    04:00 +19°C° 0.6 mm 3 m/s 751 mmHg 95%
    05:00 +19°C° 0.6 mm 3 m/s 751 mmHg 96%
    06:00 +19°C° 0.8 mm 3 m/s 751 mmHg 96%
    07:00 +19°C° 0.8 mm 3 m/s 751 mmHg 96%
    08:00 +19°C° 0.8 mm 4 m/s 751 mmHg 96%
    09:00 +20°C° 0.1 mm 4 m/s 751 mmHg 93%
    10:00 +21°C° 0.1 mm 4 m/s 751 mmHg 90%
    11:00 +22°C° 0.1 mm 4 m/s 751 mmHg 87%
    12:00 +23°C° 0.7 mm 4 m/s 751 mmHg 86%
    13:00 +23°C° 0.7 mm 4 m/s 751 mmHg 84%
    14:00 +25°C° 0.7 mm 4 m/s 751 mmHg 82%
    15:00 +23°C° 0.8 mm 4 m/s 751 mmHg 85%
    16:00 +22°C° 0.8 mm 4 m/s 751 mmHg 88%
    17:00 +21°C° 0.8 mm 4 m/s 751 mmHg 91%
    18:00 +21°C° 0 mm 4 m/s 751 mmHg 92%
    19:00 +20°C° 0 mm 4 m/s 751 mmHg 93%
    20:00 +20°C° 0 mm 3 m/s 751 mmHg 93%
    21:00 +19°C° 0 mm 3 m/s 752 mmHg 94%
    22:00 +19°C° 0 mm 3 m/s 752 mmHg 94%
    23:00 +18°C° 0 mm 3 m/s 752 mmHg 95%

    24 Junho, Segunda-feira

    Tempo Temperatura Precipitação Vento Pressão Humidade
    00:00 +18°C° 0 mm 3 m/s 752 mmHg 95%
    01:00 +18°C° 0 mm 4 m/s 752 mmHg 95%
    02:00 +18°C° 0 mm 4 m/s 752 mmHg 95%
    03:00 +18°C° 0.1 mm 4 m/s 752 mmHg 95%
    04:00 +18°C° 0.1 mm 4 m/s 752 mmHg 95%
    05:00 +18°C° 0.1 mm 4 m/s 752 mmHg 95%
    06:00 +18°C° 0 mm 4 m/s 753 mmHg 93%
    07:00 +19°C° 0 mm 4 m/s 753 mmHg 91%
    08:00 +19°C° 0 mm 4 m/s 753 mmHg 88%
    09:00 +21°C° 0 mm 4 m/s 753 mmHg 84%
    10:00 +22°C° 0 mm 5 m/s 753 mmHg 79%
    11:00 +23°C° 0 mm 5 m/s 753 mmHg 74%
    12:00 +23°C° 0 mm 5 m/s 753 mmHg 72%
    13:00 +25°C° 0 mm 5 m/s 753 mmHg 70%
    14:00 +26°C° 0 mm 5 m/s 753 mmHg 67%
    15:00 +25°C° 0 mm 5 m/s 753 mmHg 68%
    16:00 +25°C° 0 mm 5 m/s 753 mmHg 70%
    17:00 +25°C° 0 mm 5 m/s 753 mmHg 71%
    18:00 +23°C° 0 mm 4 m/s 753 mmHg 75%
    19:00 +21°C° 0 mm 3 m/s 753 mmHg 80%
    20:00 +20°C° 0 mm 3 m/s 754 mmHg 84%
    21:00 +19°C° 0 mm 3 m/s 754 mmHg 86%
    22:00 +18°C° 0 mm 3 m/s 754 mmHg 88%
    23:00 +17°C° 0 mm 3 m/s 754 mmHg 89%

    25 Junho, Terça-feira

    Tempo Temperatura Precipitação Vento Pressão Humidade
    00:00 +16°C° 0 mm 3 m/s 754 mmHg 89%
    01:00 +14°C° 0 mm 3 m/s 754 mmHg 88%
    02:00 +14°C° 0 mm 3 m/s 754 mmHg 88%
    03:00 +14°C° 0 mm 3 m/s 754 mmHg 87%
    04:00 +14°C° 0 mm 3 m/s 754 mmHg 87%
    05:00 +13°C° 0 mm 3 m/s 754 mmHg 87%
    06:00 +15°C° 0 mm 4 m/s 754 mmHg 82%
    07:00 +17°C° 0 mm 4 m/s 754 mmHg 77%
    08:00 +19°C° 0 mm 4 m/s 755 mmHg 72%
    09:00 +20°C° 0 mm 4 m/s 755 mmHg 67%
    10:00 +22°C° 0 mm 5 m/s 755 mmHg 61%
    11:00 +23°C° 0 mm 5 m/s 755 mmHg 56%
    12:00 +23°C° 0 mm 5 m/s 754 mmHg 55%
    13:00 +23°C° 0 mm 5 m/s 754 mmHg 54%
    14:00 +25°C° 0 mm 5 m/s 754 mmHg 53%
    15:00 +23°C° 0 mm 5 m/s 754 mmHg 55%
    16:00 +23°C° 0 mm 5 m/s 754 mmHg 58%
    17:00 +22°C° 0 mm 4 m/s 754 mmHg 60%
    18:00 +21°C° 0 mm 4 m/s 754 mmHg 64%
    19:00 +19°C° 0 mm 3 m/s 754 mmHg 68%
    20:00 +18°C° 0 mm 2 m/s 754 mmHg 72%
    21:00 +17°C° 0 mm 2 m/s 755 mmHg 74%
    22:00 +16°C° 0 mm 2 m/s 755 mmHg 77%
    23:00 +15°C° 0 mm 2 m/s 755 mmHg 79%
    Mostrar mais